Home > Time Zones > World Clock > Weather > Egypt > Cairo > Past weeks

Flag for Egypt Weather past 2 weeks in Cairo, Egypt

Now
63 °F

Fog.


Feels Like: 63 °F
Forecast: 61 / 82 °F
Wind: 3 mph from North

Location: Cairo Airport

Current Time: Apr 21, 2015 at 7:59:08 AM

Latest Report: Apr 21, 2015 at 7:30 AM


Visibility: 1 mi

Pressure: 29.95 "Hg

Humidity: 83%

Dew point: 57 °F

Location of CairoLocation

Historic Weather in Cairo — Graph

°F

Cairo temperature yesterday

Maximum temperature yesterday: 95 °F (at 2:30 PM)
Minimum temperature yesterday: 66 °F (at 6:00 AM)
Average temperature yesterday: 82 °F

Past Weeks' High & Low Weather Summary

 TemperatureHumidityPressure
High100 °F (Apr 8, 1:30 PM)94% (Apr 14, 4:30 AM)30.33 "Hg (Apr 14, 4:30 AM)
Low52 °F (Apr 11, 6:00 AM)5% (Apr 8, 3:00 PM)29.62 "Hg (Apr 8, 5:00 PM)
Average68 °F44%30.04 "Hg
* Reported Apr 6 6:00 AM — Apr 21 6:00 AM, Cairo, Weather by CustomWeather, © 2015

Note: Actual official high and low records may vary slightly from our data, if they occured in-between our weather recording intervals... More about our weather records

Advertising

Cairo weather history for previous 24 hours

 ConditionsComfort  
Time TempWeatherWind HumidityBarometerVisibility
6:00 AM
Tue, Apr 21
61 °FFog.5 mph88%29.95 "Hg2 mi
5:00 AM64 °FClear.5 mph68%29.92 "Hg10 mi
4:00 AM66 °FClear.6 mph60%29.89 "Hg10 mi
3:00 AM70 °FClear.5 mph40%29.89 "Hg10 mi
2:00 AM72 °FClear.6 mph33%29.89 "Hg4 mi
1:00 AM77 °FDuststorm.5 mph22%29.89 "Hg2 mi
12:00 AM77 °FDuststorm.No wind19%29.89 "Hg2 mi
11:30 PM
Mon, Apr 20
77 °FDuststorm.2 mph18%29.89 "Hg2 mi
11:00 PM79 °FDuststorm.7 mph17%29.92 "Hg2 mi
10:30 PM81 °FDuststorm.5 mph15%29.92 "Hg2 mi
10:00 PM81 °FDuststorm.5 mph15%29.92 "Hg2 mi
9:30 PM81 °FDuststorm.5 mph15%29.92 "Hg2 mi
9:00 PM82 °FSandstorm.16 mph19%29.89 "Hg1 mi
8:30 PM88 °FClear.12 mph10%29.86 "Hg4 mi
8:00 PM88 °FClear.7 mph10%29.86 "Hg10 mi
7:00 PM90 °FClear.6 mph10%29.86 "Hg10 mi
6:00 PM93 °FSunny.No wind9%29.86 "Hg10 mi
5:30 PM93 °FSunny.6 mph8%29.86 "Hg10 mi
5:00 PM93 °FSunny.3 mph9%29.86 "Hg10 mi
4:30 PM93 °FSunny.5 mph8%29.86 "Hg10 mi
4:00 PM95 °FSunny.7 mph9%29.86 "Hg10 mi
3:30 PM95 °FSunny.5 mph8%29.86 "Hg10 mi
3:00 PM93 °FSunny.8 mph8%29.89 "Hg10 mi
2:30 PM95 °FSunny.8 mph8%29.89 "Hg10 mi
2:00 PM93 °FSunny.8 mph8%29.89 "Hg10 mi
1:30 PM93 °FSunny.8 mph8%29.92 "Hg10 mi
1:00 PM93 °FSunny.7 mph10%29.92 "Hg10 mi
12:30 PM91 °FSunny.7 mph10%29.95 "Hg10 mi
12:00 PM91 °FSunny.8 mph10%29.95 "Hg10 mi
11:30 AM90 °FSunny.9 mph12%29.95 "Hg10 mi
11:00 AM88 °FSunny.7 mph11%29.98 "Hg10 mi
10:30 AM88 °FSunny.8 mph10%29.98 "Hg10 mi
10:00 AM88 °FSunny.7 mph9%29.98 "Hg10 mi
9:30 AM88 °FSunny.5 mph9%29.98 "Hg10 mi
9:00 AM84 °FClear.6 mph9%29.98 "Hg4 mi
8:30 AM84 °FHaze.5 mph10%29.98 "Hg2 mi
8:00 AM79 °FHaze.5 mph13%29.98 "Hg2 mi
7:30 AM77 °FHaze.No wind17%29.98 "Hg2 mi
7:00 AM73 °FHaze.No wind22%29.98 "Hg2 mi
Weather by CustomWeather, © 2015

See weather overviewHow to use our weather pages